DW7584 Weather Reports


Display with metric or nautical units.
time (UTC)temp
F
wind
direction
speed
MPH
gust
MPH
rain 1hr
in
rain 24hr
in
rain mn
in
humidity
%
barometer
mb
20260504194516 74 248 20.0 28.0 0.00 0.00 0.00 41 995.3
20260504193516 74 248 18.0 24.0 0.00 0.00 0.00 43 995.3
20260504192516 73 248 20.0 28.0 0.00 0.00 0.00 40 995.2
20260504191516 75 225 19.0 27.0 0.00 0.00 0.00 42 995.4
20260504190516 74 248 22.0 34.0 0.00 0.00 0.00 39 995.4
20260504185516 74 248 20.0 30.0 0.00 0.00 0.00 41 995.2
20260504184516 73 248 23.0 28.0 0.00 0.00 0.00 41 995.2
20260504183517 74 225 21.0 29.0 0.00 0.00 0.00 41 995.4
20260504182516 73 248 19.0 27.0 0.00 0.00 0.00 41 995.2
20260504181516 74 225 22.0 31.0 0.00 0.00 0.00 40 995.3
20260504180516 74 225 23.0 33.0 0.00 0.00 0.00 40 995.2
20260504175516 74 248 21.0 29.0 0.00 0.00 0.00 39 995.1
20260504174516 74 225 21.0 27.0 0.00 0.00 0.00 41 995.4
20260504173516 74 225 22.0 35.0 0.00 0.00 0.00 41 995.4
20260504172516 73 225 21.0 30.0 0.00 0.00 0.00 40 995.4
20260504171516 73 225 22.0 31.0 0.00 0.00 0.00 40 995.4
20260504170516 74 225 23.0 36.0 0.00 0.00 0.00 40 995.5
20260504150516 69 203 7.0 16.0 0.00 0.00 0.00 40 997.1
20260504140516 66 203 6.0 16.0 0.00 0.00 0.00 44 997.9
20260504130515 61 225 5.0 11.0 0.00 0.00 0.00 54 999.3
20260504110515 45 248 1.0 3.0 0.00 0.00 0.00 75 1000.1
20260504100518 44 0.0 1.0 0.00 0.00 0.00 76 1001.0
20260504081519 44 0.0 1.0 0.00 0.00 0.00 82 1002.5
20260504080517 44 0.0 1.0 0.00 0.00 0.00 83 1002.7
20260504050517 54 0.0 3.0 0.00 0.00 0.00 64 1004.8
20260504045517 55 90 1.0 4.0 0.00 0.00 0.00 62 1004.8
20260504044517 55 45 5.0 7.0 0.00 0.00 0.00 61 1004.6
20260504043517 53 338 2.0 4.0 0.00 0.00 0.00 62 1004.4
20260504042517 54 315 2.0 6.0 0.00 0.00 0.00 61 1004.5
20260504041517 56 270 4.0 6.0 0.00 0.00 0.00 56 1004.3
20260504040517 56 248 4.0 5.0 0.00 0.00 0.00 55 1004.1
20260504035517 56 248 4.0 4.0 0.00 0.00 0.00 57 1004.1
20260504034517 57 248 5.0 7.0 0.00 0.00 0.00 54 1004.2
20260504033517 58 248 6.0 7.0 0.00 0.00 0.00 52 1004.2
20260504032537 58 248 6.0 7.0 0.00 0.00 0.00 53 1004.2
20260504031537 58 248 5.0 6.0 0.00 0.00 0.00 55 1004.3
20260504030517 58 248 6.0 7.0 0.00 0.00 0.00 56 1004.4
20260504025517 57 225 5.0 6.0 0.00 0.00 0.00 60 1004.4
20260504024517 57 225 6.0 7.0 0.00 0.00 0.00 59 1004.2
20260504023517 57 225 5.0 6.0 0.00 0.00 0.00 60 1004.2
20260504022537 56 225 5.0 6.0 0.00 0.00 0.00 62 1004.2
20260504021517 56 225 5.0 7.0 0.00 0.00 0.00 62 1004.0
20260504020518 56 225 4.0 5.0 0.00 0.00 0.00 64 1003.9
20260504015522 57 203 3.0 5.0 0.00 0.00 0.00 62 1004.0
20260504014517 58 225 4.0 5.0 0.00 0.00 0.00 59 1003.9
20260504013517 59 225 5.0 6.0 0.00 0.00 0.00 57 1003.7
20260504012517 60 225 4.0 6.0 0.00 0.00 0.00 55 1003.7
20260504011517 61 225 5.0 6.0 0.00 0.00 0.00 52 1003.8
20260504010517 63 248 5.0 7.0 0.00 0.00 0.00 48 1003.7
20260504005517 64 248 6.0 9.0 0.00 0.00 0.00 46 1003.6
20260504004517 65 248 8.0 10.0 0.00 0.00 0.00 44 1003.5
20260504003518 65 248 9.0 12.0 0.00 0.00 0.00 43 1003.5
20260504002517 66 248 10.0 13.0 0.00 0.00 0.00 41 1003.5
20260504001517 66 248 10.0 12.0 0.00 0.00 0.00 43 1003.5
20260504000517 67 248 8.0 10.0 0.00 0.00 0.00 44 1003.4
20260503235517 67 248 8.0 9.0 0.00 0.00 0.00 45 1003.3
20260503234537 68 248 11.0 15.0 0.00 0.00 0.00 43 1003.2
20260503233537 68 248 10.0 14.0 0.00 0.00 0.00 42 1003.3
20260503232517 68 248 12.0 17.0 0.00 0.00 0.00 41 1003.2
20260503231538 68 248 12.0 16.0 0.00 0.00 0.00 41 1003.3
20260503230517 68 248 13.0 17.0 0.00 0.00 0.00 42 1003.3
20260503225517 68 248 13.0 17.0 0.00 0.00 0.00 43 1003.2
20260503224517 69 248 12.0 18.0 0.00 0.00 0.00 42 1003.3
20260503223516 69 248 11.0 15.0 0.00 0.00 0.00 44 1003.4
20260503222516 69 225 13.0 16.0 0.00 0.00 0.00 44 1003.3
20260503221516 69 225 13.0 17.0 0.00 0.00 0.00 44 1003.3
20260503220516 68 225 13.0 18.0 0.00 0.00 0.00 45 1003.2
20260503215516 70 225 8.0 16.0 0.00 0.00 0.00 44 1003.5
20260503214520 69 225 10.0 16.0 0.00 0.00 0.00 45 1003.6
20260503213516 69 225 8.0 14.0 0.00 0.00 0.00 46 1003.8
20260503212539 70 225 10.0 16.0 0.00 0.00 0.00 46 1003.9
20260503211516 69 203 5.0 12.0 0.00 0.00 0.00 46 1004.0
20260503210536 69 225 5.0 11.0 0.00 0.00 0.00 46 1004.2
20260503205516 69 225 9.0 17.0 0.00 0.00 0.00 46 1004.2
20260503204516 69 203 8.0 14.0 0.00 0.00 0.00 46 1004.3
20260503203516 69 203 6.0 15.0 0.00 0.00 0.00 45 1004.4
20260503202517 69 225 5.0 15.0 0.00 0.00 0.00 46 1004.6
20260503201517 69 203 6.0 12.0 0.00 0.00 0.00 46 1004.7
20260503200516 69 203 5.0 13.0 0.00 0.00 0.00 45 1005.0
20260503195516 69 225 5.0 14.0 0.00 0.00 0.00 46 1005.1